Theta_e
289 289 289 289 289 288 288 288 287 287 286 286 285 285 285 285 286 286 285 285 285 285 285 285 285 285 285 285 285 285 285 285 284 285 287 287 288 289 295 297 296 298 300
289 289 289 289 288 288 288 287 287 286 286 285 285 285 285 285 285 285 284 284 284 284 285 285 285 285 285 284 284 284 284 284 283 283 285 286 287 287 287 288 296 297 297
289 289 289 289 288 288 288 287 286 286 285 285 284 285 284 284 284 284 284 284 284 284 284 284 284 284 283 283 283 284 284 284 284 283 283 284 285 286 286 287 287 289 297
288 289 289 288 288 288 288 287 286 285 285 284 284 284 284 283 283 283 283 283 283 283 283 282 282 282 281 281 280 281 281 282 282 283 283 283 284 285 285 285 286 286 287
288 289 289 288 288 288 288 287 286 285 284 283 283 283 283 283 283 283 282 282 282 282 281 280 279 277 277 278 278 279 279 279 280 281 282 283 284 284 284 285 285 285 286
289 289 288 288 288 288 288 287 286 284 283 283 283 283 283 283 282 282 281 281 281 279 279 277 276 275 274 274 275 276 278 279 280 280 281 282 283 284 284 285 285 286 285
289 289 288 288 288 288 287 287 285 284 283 282 282 282 282 282 281 281 280 279 278 277 275 274 274 273 272 272 273 273 274 275 276 278 279 279 280 281 282 283 284 285 286
289 288 288 288 288 288 287 287 284 283 282 282 282 282 282 281 280 280 278 277 276 275 273 272 272 272 271 271 272 272 273 274 274 274 275 276 277 277 278 279 281 283 285
288 288 288 288 288 287 287 285 283 282 282 282 282 281 281 280 279 278 276 275 274 272 271 272 271 271 271 272 273 273 273 273 273 274 275 276 277 277 278 279 280 281 284
288 288 288 288 288 287 286 283 282 281 281 281 281 280 279 279 277 276 275 273 271 271 271 271 272 271 272 273 274 273 274 274 274 274 275 275 275 275 275 276 277 278 280
288 287 287 287 287 286 285 282 282 281 280 280 280 280 278 277 277 276 275 270 271 271 272 272 272 272 273 274 274 275 274 275 276 276 276 276 275 275 275 275 275 276 278
287 287 287 286 286 285 283 281 280 280 280 280 279 279 278 277 277 276 273 271 272 272 272 272 272 273 274 275 276 277 277 277 276 276 275 275 274 274 274 274 274 274 276
287 286 285 285 284 282 281 280 279 279 279 279 278 277 277 276 276 275 272 272 272 272 273 273 275 275 275 275 275 275 275 276 276 275 275 274 274 274 274 273 273 273 273
286 285 285 284 283 281 280 279 278 278 278 277 277 276 275 274 273 273 272 272 272 272 273 273 273 272 273 273 274 274 274 274 273 272 273 273 273 273 273 273 273 272 273
285 284 283 283 282 280 278 278 277 277 277 276 275 273 271 271 272 271 272 272 273 272 271 272 273 273 273 274 274 274 274 275 274 274 273 272 272 273 272 272 272 272 273
284 283 282 282 279 278 278 277 276 276 276 275 274 271 270 270 270 271 272 271 271 271 272 271 272 272 272 272 273 274 275 275 275 274 273 272 272 272 272 272 272 273 273
282 281 281 279 277 277 276 276 277 276 275 275 274 272 272 269 269 270 270 270 271 271 271 271 270 270 270 271 271 271 272 273 273 274 273 273 273 273 273 274 274 274 275
281 280 278 277 276 276 275 275 275 275 275 275 274 272 272 272 271 268 269 271 272 271 271 270 270 269 269 269 270 271 272 273 273 274 274 275 274 274 275 275 276 277 281
279 278 276 276 275 274 274 274 273 273 273 273 273 273 271 271 271 270 270 270 271 271 270 270 269 269 269 269 269 270 270 271 272 273 274 274 275 275 277 278 278 279 281
277 276 275 274 273 273 272 272 272 272 272 272 272 272 272 272 272 271 270 270 270 270 270 270 270 269 269 269 269 269 270 271 271 272 273 274 275 276 277 278 279 279 281
274 274 273 273 272 271 271 271 271 271 271 271 271 270 270 270 270 270 270 270 270 270 270 270 270 270 269 269 269 269 269 269 270 271 272 274 275 276 277 278 279 280 280
272 271 271 271 270 270 270 270 270 270 270 270 270 270 269 269 269 270 270 270 270 269 269 269 270 269 269 269 269 269 269 269 269 271 272 273 274 275 276 277 278 279 280
270 269 269 269 268 268 268 268 269 269 269 269 269 269 269 269 269 269 269 270 269 269 269 269 270 270 270 269 269 269 269 269 269 270 271 272 273 274 275 276 276 277 278
267 267 267 267 267 267 267 267 267 268 268 268 268 268 269 269 269 269 269 269 269 269 269 269 269 269 270 270 269 269 270 269 269 271 271 271 272 273 274 274 275 276 276
265 265 265 265 265 266 266 266 267 267 268 268 268 268 268 268 268 268 268 268 268 269 269 269 269 269 270 270 269 270 270 270 270 271 271 271 272 272 272 273 274 274 275
263 263 264 264 265 266 266 266 267 267 268 268 268 268 268 268 268 267 267 267 267 268 268 268 268 268 269 269 269 269 269 269 270 271 271 271 271 271 271 272 272 272 273
Wind_Speed
3 2 4 6 9 12 14 16 17 18 18 19 21 23 26 29 32 36 39 40 40 42 42 41 39 37 37 36 34 33 32 31 37 43 43 41 39 36 33 32 35 36 39
6 5 6 9 11 13 16 18 20 21 22 24 26 29 33 36 38 40 42 43 44 43 42 42 43 43 40 39 38 38 38 36 39 44 44 44 44 41 37 33 32 34 37
8 8 9 11 14 17 19 21 23 24 25 27 30 33 36 40 42 44 44 44 44 43 43 44 44 43 45 45 42 41 40 40 41 43 47 45 47 44 43 41 36 35 34
12 12 13 14 17 19 22 23 25 27 27 29 32 35 38 41 42 42 43 44 45 45 46 46 45 44 44 44 44 42 40 40 41 43 45 46 45 46 46 45 45 41 37
17 17 17 17 19 22 24 26 28 28 30 32 34 36 39 40 40 41 42 44 46 47 47 46 45 43 41 39 35 40 38 39 39 34 34 34 34 37 42 43 44 43 43
21 22 21 20 22 24 26 28 30 30 32 34 36 39 40 40 40 41 43 44 46 46 47 45 43 42 40 31 31 32 32 35 38 37 36 36 38 31 29 34 40 41 44
26 26 24 23 25 27 28 31 32 33 35 35 37 39 40 40 40 42 44 44 44 44 42 41 39 35 35 36 34 30 31 33 33 36 41 43 40 36 33 35 36 36 45
29 29 28 27 29 30 31 33 32 34 34 36 38 39 40 39 40 42 42 41 41 40 38 37 36 35 32 29 30 31 30 30 29 31 34 42 44 45 41 44 43 41 40
31 31 31 30 30 31 32 32 32 35 34 36 38 39 39 39 39 40 39 38 38 38 36 33 31 33 29 26 29 33 35 35 34 33 34 34 34 34 34 38 43 39 44
30 30 30 30 31 32 32 32 33 34 35 36 37 37 37 38 37 37 35 33 35 36 34 34 35 28 28 28 31 34 38 38 37 34 32 33 33 35 33 35 39 42 46
31 31 30 29 30 31 33 32 33 33 33 35 37 38 36 35 36 34 32 27 32 34 37 38 38 36 31 30 30 33 36 35 39 42 43 40 33 36 40 39 39 43 45
31 30 29 28 30 32 33 32 32 31 32 34 36 37 36 34 34 33 28 24 27 32 38 40 41 37 36 37 37 38 36 37 41 43 45 47 47 48 44 43 41 40 48
32 31 29 29 31 30 31 31 30 29 30 33 34 36 36 34 34 33 30 30 30 31 34 36 36 36 35 34 35 34 32 37 40 40 42 44 44 45 43 42 42 43 45
32 31 30 30 30 29 29 29 28 26 28 30 32 34 34 34 32 30 34 36 36 37 39 37 39 38 36 28 26 27 30 30 32 36 40 42 42 40 41 39 41 41 41
31 30 30 31 31 29 28 27 26 24 27 29 30 29 29 30 27 26 29 32 33 33 35 36 33 32 30 28 28 28 28 27 28 32 36 39 40 40 40 36 37 39 41
31 31 31 30 28 28 28 26 21 23 24 25 23 19 22 21 21 23 25 26 28 30 30 31 30 29 29 29 30 30 29 30 30 32 30 33 38 38 39 38 38 39 40
31 30 30 28 28 27 26 26 28 20 19 22 22 18 19 18 19 20 22 24 26 25 26 27 28 28 29 29 29 30 32 30 30 31 31 30 30 32 32 35 38 39 38
30 29 27 28 28 26 25 25 25 26 26 18 19 19 18 21 19 18 20 23 23 23 25 27 28 29 30 30 30 30 30 30 29 30 28 28 27 29 31 34 36 36 31
28 27 27 28 26 25 24 24 24 24 24 22 17 17 16 18 16 16 18 20 22 24 25 26 27 29 30 31 31 31 31 31 31 29 27 26 26 27 29 31 33 32 27
27 27 28 27 24 24 23 23 22 22 21 20 18 18 18 20 16 17 18 20 22 23 25 26 27 27 29 30 32 32 32 32 32 30 28 25 23 25 27 28 28 28 23
27 27 26 25 23 23 22 22 21 20 19 18 16 16 16 17 18 18 20 20 21 23 24 26 26 27 28 29 31 32 32 34 33 31 29 27 25 24 22 21 21 22 19
27 25 24 24 23 22 21 21 19 19 18 18 16 14 16 16 16 18 19 20 21 21 23 25 26 25 26 26 29 30 31 34 36 32 30 27 25 23 21 18 16 14 13
26 25 24 23 22 21 20 19 18 18 17 17 18 17 16 17 18 19 20 21 22 22 22 23 24 25 24 24 24 26 27 31 37 32 28 25 23 21 19 17 14 11 11
26 24 23 21 21 20 19 18 18 18 18 18 19 20 21 22 22 22 22 22 22 22 22 23 23 23 23 23 23 24 23 27 34 29 23 21 19 17 15 13 12 9 7
22 20 20 19 19 19 19 20 20 20 20 20 20 21 22 22 22 22 22 22 22 21 21 21 21 22 21 21 20 22 23 24 30 25 22 19 17 15 13 11 9 7 5
17 17 17 18 19 19 19 20 20 20 20 20 20 21 21 21 21 21 21 21 21 20 20 19 19 19 19 19 18 20 21 22 25 22 21 19 16 14 13 11 9 8 6
Wind_Direction
222 281 330 336 338 339 338 339 338 336 333 331 331 331 330 328 325 323 320 318 314 312 311 308 304 301 297 294 291 288 285 283 283 287 289 293 293 295 294 287 278 271 268
239 271 304 320 326 329 329 330 328 326 326 326 326 327 327 326 324 322 319 317 315 314 311 308 307 306 301 296 292 288 286 283 282 285 284 286 287 289 292 289 287 280 270
247 271 295 309 319 323 324 323 323 322 320 321 323 324 323 323 322 320 319 318 316 314 311 308 306 303 301 301 298 293 288 286 284 284 284 282 282 283 285 286 286 282 280
249 267 283 298 309 316 319 318 319 317 315 317 319 320 320 320 320 319 318 316 314 312 310 307 303 299 297 295 295 296 293 290 286 285 285 285 283 281 281 283 284 285 283
252 265 276 286 300 310 314 313 314 312 312 315 317 317 319 320 320 318 316 314 313 310 308 305 303 300 294 289 286 285 287 288 288 286 283 284 283 284 281 284 281 284 284
256 262 267 278 293 301 309 309 309 308 311 314 316 317 319 319 319 318 316 315 312 309 308 308 307 306 303 296 287 279 275 278 280 282 282 279 279 276 279 282 282 282 284
255 259 266 274 283 292 303 307 306 308 312 313 315 317 318 319 319 318 317 314 311 311 311 310 307 304 303 301 298 291 282 273 270 273 273 272 275 274 275 274 274 276 275
256 262 265 270 280 289 299 302 303 307 309 313 316 318 317 319 320 319 317 314 311 312 314 311 309 311 311 304 302 301 298 298 294 288 280 277 276 278 276 269 270 265 270
261 263 263 269 279 288 294 296 301 307 309 313 316 317 317 321 322 320 318 315 313 315 316 317 318 314 310 302 299 296 294 291 290 283 277 276 277 275 272 275 272 271 272
262 259 260 269 281 288 292 296 302 306 309 312 315 316 319 321 322 320 318 315 315 317 323 322 319 306 302 298 294 293 293 295 299 301 298 296 296 291 288 273 267 271 268
255 255 261 273 283 290 293 296 301 303 307 312 315 316 318 322 322 322 321 315 315 319 315 311 313 312 302 298 295 292 289 296 294 290 290 290 288 288 286 284 281 267 268
256 258 266 276 288 288 291 294 299 304 308 310 312 314 318 322 324 328 328 316 313 311 312 312 311 310 304 298 294 294 291 288 285 284 285 284 285 287 290 291 289 273 260
259 263 270 281 284 285 287 292 297 303 306 309 312 316 318 324 330 334 333 331 319 315 314 312 307 304 301 295 291 293 293 290 290 287 283 283 285 288 287 282 280 280 272
262 267 273 280 283 284 285 290 296 303 306 310 313 316 323 329 328 332 337 327 322 322 323 311 301 301 301 304 304 306 307 302 298 287 284 285 286 284 281 279 274 277 276
266 271 277 282 282 283 285 292 297 304 307 312 316 318 316 317 329 327 322 325 324 317 310 310 316 316 315 314 315 318 321 321 315 315 304 296 295 296 292 283 276 277 269
269 273 279 281 281 283 286 291 296 304 306 305 305 301 306 311 320 322 325 326 321 328 328 326 325 325 325 324 322 321 322 325 324 321 314 295 292 289 285 286 284 275 270
269 275 280 282 281 283 287 294 301 300 298 299 301 307 313 315 321 327 324 329 334 335 340 343 342 340 336 333 330 329 328 330 329 328 318 308 297 293 291 292 288 280 275
274 278 278 279 280 283 287 293 298 302 304 299 298 309 316 317 325 327 330 333 332 343 349 354 353 351 347 343 338 335 334 335 336 335 329 315 304 299 297 295 298 298 283
275 277 276 275 277 281 286 290 294 296 298 301 301 299 307 310 320 332 331 334 340 345 348 351 352 352 351 349 347 343 340 340 339 337 334 330 320 309 304 304 307 310 310
275 273 271 273 274 278 282 286 289 291 293 298 304 305 309 313 328 333 336 340 344 345 346 346 348 349 349 350 350 349 346 344 340 337 334 331 327 325 316 311 307 306 301
271 270 270 270 273 274 278 281 284 286 290 294 300 303 309 314 321 327 331 337 338 341 341 341 343 344 346 347 349 348 350 350 344 337 334 332 330 324 316 307 303 301 299
271 269 266 270 270 272 275 277 279 282 286 291 295 299 302 307 311 316 321 325 328 332 333 333 336 340 342 346 347 346 349 352 348 340 334 333 331 328 324 319 311 301 303
270 268 267 266 265 266 267 270 273 277 282 287 293 297 300 302 307 310 313 317 319 323 326 326 329 332 337 340 347 348 350 353 348 340 334 334 335 334 333 332 331 329 327
274 271 267 263 262 262 263 265 269 274 279 283 288 293 299 302 306 308 311 313 314 317 321 321 323 327 332 335 342 347 350 359 347 342 340 339 340 342 342 345 347 346 335
277 271 265 263 262 263 263 265 268 272 276 283 287 292 295 299 303 306 309 311 314 316 319 321 322 323 328 333 334 340 347 4 348 350 353 353 352 353 358 2 8 12 11
283 275 272 270 270 269 268 270 272 275 279 283 287 291 294 298 301 306 309 312 314 316 321 323 323 325 327 330 332 340 345 5 347 1 4 7 11 15 19 24 29 39 46